This demonstration page uses our WeatherBlox Daily Observations layout. Learn more.

Left ArrowRight Arrow

41.55636, -103.73856

Hourly Observations for April 10, 2021

Temp ( °F °C ) Dew Point ( °F °C ) Humidity (%) Winds ( mph kmh ) Pressure ( in mb ) Visibility ( mi km ) Precip ( " mm )
12:58 am 00:58 Clear 27 -2.8 16 -9.1 62 62 SW 15 24 30.07 1018 10 16.0934 0 0
1:58 am 01:58 Clear 28 -2 15 -9.2 58 58 SW 15 24 30.04 1017 10 16.0934 0 0
2:58 am 02:58 Clear 28 -2.4 15 -9.2 60 60 SW 16 26 30.02 1017 10 16.0934 0 0
3:58 am 03:58 Clear 28 -2.2 15 -9.4 58 58 SW 17 28 30 1016 10 16.0934 0 0
4:58 am 04:58 Clear 29 -1.9 16 -8.7 60 60 SW 17 28 29.97 1015 10 16.0934 0 0
5:58 am 05:58 Clear 29 -1.4 17 -8.5 59 59 SW 18 30 29.95 1014 10 16.0934 0 0
6:58 am 06:58 Sunny 29 -1.5 17 -8.5 59 59 W 14 22 29.96 1015 10 16.0934 0 0
7:58 am 07:58 Sunny 38 3.3 17 -8.5 42 42 W 14 22 29.96 1014 10 16.0934 0 0
8:58 am 08:58 Sunny 43 6 17 -8.6 35 35 W 15 24 29.93 1014 10 16.0934 0 0
9:58 am 09:58 Sunny 49 9.6 17 -8.2 28 28 WNW 12 19 29.89 1012 10 16.0934 0 0
10:58 am 10:58 Sunny 53 11.7 16 -8.8 23 23 WNW 10 17 29.87 1011 10 16.0934 0 0
11:58 am 11:58 Sunny 55 13 18 -7.9 23 23 W 17 28 29.85 1011 10 16.0934 0 0
12:58 pm 12:58 Sunny 58 14.6 14 -10 17 17 NW 13 20 29.81 1010 10 16.0934 0 0
1:58 pm 13:58 Sunny 61 16.1 11 -11.4 14 14 NW 17 28 29.76 1008 10 16.0934 0 0
2:58 pm 14:58 Sunny 63 17.4 12 -11.2 13 13 NNW 18 30 29.72 1006 10 16.0934 0 0
3:58 pm 15:58 Sunny 64 18 9 -12.8 11 11 NW 20 31 29.68 1005 10 16.0934 0 0
4:58 pm 16:58 Sunny 65 18.2 10 -12.5 11 11 WNW 22 35 29.66 1004 10 16.0934 0 0
5:58 pm 17:58 Sunny 64 17.7 10 -12.1 12 12 WNW 21 33 29.65 1004 10 16.0934 0 0
6:58 pm 18:58 Sunny 60 15.7 12 -11.1 15 15 W 13 20 29.65 1004 10 16.0934 0 0
7:58 pm 19:58 Clear 53 11.8 13 -10.6 20 20 WSW 14 22 29.63 1003 10 16.0934 0 0
8:58 pm 20:58 Partly Cloudy 53 11.5 13 -10.3 21 21 WSW 17 28 29.61 1003 10 16.0934 0 0
9:58 pm 21:58 Partly Cloudy 53 11.4 12 -10.9 20 20 WSW 17 28 29.59 1002 10 16.0934 0 0
10:58 pm 22:58 Clear 48 8.7 13 -10.3 25 25 W 15 24 29.59 1002 10 16.0934 0 0
11:58 pm 23:58 Clear 49 9.3 13 -10.7 23 23 W 20 31 29.59 1002 10 16.0934 0 0

Powered by AerisWeather